Time,TemperatureF,DewpointF,PressureIn,WindDirection,WindDirectionDegrees,WindSpeedMPH,WindSpeedGustMPH,Humidity,HourlyPrecipIn,Conditions,Clouds,dailyrainin,SolarRadiationWatts/m^2,SoftwareType,DateUTC
2013-01-30 00:00:00,34.0,34.0,-100.00,ENE,67,9.0,-999.0,99,0.06,,,-99.99,0.000000,,2013-01-30 05:00:00,
2013-01-30 00:32:00,34.0,34.0,-100.00,ENE,67,9.0,-999.0,99,0.06,,,-99.99,0.000000,,2013-01-30 05:32:00,
2013-01-30 00:43:00,34.0,34.0,-100.00,ENE,67,9.0,-999.0,99,0.06,,,-99.99,0.000000,,2013-01-30 05:43:00,
2013-01-30 00:52:00,34.0,34.0,-100.00,ENE,67,9.0,-999.0,99,0.06,,,-99.99,0.000000,,2013-01-30 05:52:00,
2013-01-30 01:00:00,34.0,34.0,-100.00,East,90,9.0,-999.0,99,0.04,,,-99.99,0.000000,,2013-01-30 06:00:00,
2013-01-30 01:42:00,34.0,34.0,-100.00,East,90,9.0,-999.0,99,0.04,,,-99.99,0.000000,,2013-01-30 06:42:00,
2013-01-30 01:52:00,34.0,34.0,-100.00,East,90,9.0,-999.0,99,0.04,,,-99.99,0.000000,,2013-01-30 06:52:00,
2013-01-30 02:00:00,33.0,33.0,-100.00,ENE,67,10.0,-999.0,99,0.03,,,-99.99,0.000000,,2013-01-30 07:00:00,
2013-01-30 02:42:00,33.0,33.0,-100.00,ENE,67,10.0,-999.0,99,0.03,,,-99.99,0.000000,,2013-01-30 07:42:00,
2013-01-30 02:52:00,33.0,33.0,-100.00,ENE,67,10.0,-999.0,99,0.03,,,-99.99,0.000000,,2013-01-30 07:52:00,
2013-01-30 03:00:00,33.0,33.0,-100.00,East,90,10.0,-999.0,99,0.03,,,-99.99,0.000000,,2013-01-30 08:00:00,
2013-01-30 03:42:00,33.0,33.0,-100.00,East,90,10.0,-999.0,99,0.03,,,-99.99,0.000000,,2013-01-30 08:42:00,
2013-01-30 03:52:00,33.0,33.0,-100.00,East,90,10.0,-999.0,99,0.03,,,-99.99,0.000000,,2013-01-30 08:52:00,
2013-01-30 04:00:00,33.0,33.0,-100.00,NE,45,10.0,-999.0,99,0.01,,,-99.99,0.000000,,2013-01-30 09:00:00,
2013-01-30 04:42:00,33.0,33.0,-100.00,NE,45,10.0,-999.0,99,0.01,,,-99.99,0.000000,,2013-01-30 09:42:00,
2013-01-30 04:52:00,33.0,33.0,-100.00,NE,45,10.0,-999.0,99,0.01,,,-99.99,0.000000,,2013-01-30 09:52:00,
2013-01-30 06:00:00,33.0,33.0,-100.00,East,90,9.0,-999.0,99,-99.99,,,-99.99,0.000000,,2013-01-30 11:00:00,
2013-01-30 06:42:00,33.0,33.0,-100.00,East,90,9.0,-999.0,99,-99.99,,,-99.99,0.000000,,2013-01-30 11:42:00,
2013-01-30 06:52:00,33.0,33.0,-100.00,East,90,9.0,-999.0,99,-99.99,,,-99.99,0.000000,,2013-01-30 11:52:00,
2013-01-30 07:00:00,33.0,32.0,-100.00,East,90,10.0,-999.0,98,0.01,,,-99.99,0.000000,,2013-01-30 12:00:00,
2013-01-30 07:33:00,33.0,32.0,-100.00,East,90,10.0,-999.0,98,0.01,,,-99.99,0.000000,,2013-01-30 12:33:00,
2013-01-30 07:43:00,33.0,32.0,-100.00,East,90,10.0,-999.0,98,0.01,,,-99.99,0.000000,,2013-01-30 12:43:00,
2013-01-30 08:00:00,33.0,32.0,-100.00,ESE,112,9.0,-999.0,97,-99.99,,,-99.99,0.000000,,2013-01-30 13:00:00,
2013-01-30 08:43:00,33.0,32.0,-100.00,ESE,112,9.0,-999.0,97,-99.99,,,-99.99,0.000000,,2013-01-30 13:43:00,
2013-01-30 08:53:00,33.0,32.0,-100.00,ESE,112,9.0,-999.0,97,-99.99,,,-99.99,0.000000,,2013-01-30 13:53:00,
2013-01-30 09:00:00,32.0,32.0,-100.00,NE,45,11.0,-999.0,98,0.01,,,-99.99,2.320000,,2013-01-30 14:00:00,
2013-01-30 09:43:00,32.0,32.0,-100.00,NE,45,11.0,-999.0,98,0.01,,,-99.99,2.320000,,2013-01-30 14:43:00,
2013-01-30 09:53:00,32.0,32.0,-100.00,NE,45,11.0,-999.0,98,0.01,,,-99.99,2.320000,,2013-01-30 14:53:00,
2013-01-30 10:00:00,31.0,31.0,-100.00,East,90,10.0,-999.0,98,-99.99,,,-99.99,17.400000,,2013-01-30 15:00:00,
2013-01-30 10:43:00,31.0,31.0,-100.00,East,90,10.0,-999.0,98,-99.99,,,-99.99,17.400000,,2013-01-30 15:43:00,
2013-01-30 10:54:00,31.0,31.0,-100.00,East,90,10.0,-999.0,98,-99.99,,,-99.99,17.400000,,2013-01-30 15:54:00,
2013-01-30 11:00:00,31.0,30.0,-100.00,NE,45,0.0,-999.0,98,-99.99,,,-99.99,60.320000,,2013-01-30 16:00:00,
2013-01-30 11:42:00,31.0,30.0,-100.00,NE,45,0.0,-999.0,98,-99.99,,,-99.99,60.320000,,2013-01-30 16:42:00,
2013-01-30 11:52:00,31.0,30.0,-100.00,NE,45,0.0,-999.0,98,-99.99,,,-99.99,60.320000,,2013-01-30 16:52:00,
2013-01-30 12:00:00,31.0,30.0,-100.00,ENE,67,0.0,-999.0,97,-99.99,,,-99.99,80.040001,,2013-01-30 17:00:00,
2013-01-30 12:43:00,31.0,30.0,-100.00,ENE,67,0.0,-999.0,97,-99.99,,,-99.99,80.040001,,2013-01-30 17:43:00,
2013-01-30 12:53:00,31.0,30.0,-100.00,ENE,67,0.0,-999.0,97,-99.99,,,-99.99,80.040001,,2013-01-30 17:53:00,
2013-01-30 13:00:00,30.0,30.0,-100.00,ENE,67,0.0,-999.0,97,-99.99,,,-99.99,75.400002,,2013-01-30 18:00:00,
2013-01-30 13:43:00,30.0,30.0,-100.00,ENE,67,0.0,-999.0,97,-99.99,,,-99.99,75.400002,,2013-01-30 18:43:00,
2013-01-30 13:53:00,30.0,30.0,-100.00,ENE,67,0.0,-999.0,97,-99.99,,,-99.99,75.400002,,2013-01-30 18:53:00,
2013-01-30 14:00:00,30.0,30.0,-100.00,NE,45,0.0,-999.0,97,-99.99,,,-99.99,99.760002,,2013-01-30 19:00:00,
2013-01-30 14:43:00,30.0,30.0,-100.00,NE,45,0.0,-999.0,97,-99.99,,,-99.99,99.760002,,2013-01-30 19:43:00,
2013-01-30 14:53:00,30.0,30.0,-100.00,NE,45,0.0,-999.0,97,-99.99,,,-99.99,99.760002,,2013-01-30 19:53:00,
2013-01-30 15:00:00,30.0,30.0,-100.00,NNE,22,0.0,-999.0,98,-99.99,,,-99.99,74.239998,,2013-01-30 20:00:00,
2013-01-30 15:42:00,30.0,30.0,-100.00,NNE,22,0.0,-999.0,98,-99.99,,,-99.99,74.239998,,2013-01-30 20:42:00,
2013-01-30 15:53:00,30.0,30.0,-100.00,NNE,22,0.0,-999.0,98,-99.99,,,-99.99,74.239998,,2013-01-30 20:53:00,
2013-01-30 16:00:00,29.0,29.0,-100.00,ENE,67,0.0,-999.0,99,-99.99,,,-99.99,39.439999,,2013-01-30 21:00:00,
2013-01-30 16:43:00,29.0,29.0,-100.00,ENE,67,0.0,-999.0,99,-99.99,,,-99.99,39.439999,,2013-01-30 21:43:00,
2013-01-30 16:53:00,29.0,29.0,-100.00,ENE,67,0.0,-999.0,99,-99.99,,,-99.99,39.439999,,2013-01-30 21:53:00,
2013-01-30 17:00:00,28.0,28.0,-100.00,East,90,0.0,-999.0,99,-99.99,,,-99.99,20.879999,,2013-01-30 22:00:00,
2013-01-30 17:43:00,28.0,28.0,-100.00,East,90,0.0,-999.0,99,-99.99,,,-99.99,20.879999,,2013-01-30 22:43:00,
2013-01-30 17:53:00,28.0,28.0,-100.00,East,90,0.0,-999.0,99,-99.99,,,-99.99,20.879999,,2013-01-30 22:53:00,
2013-01-30 18:00:00,28.0,28.0,-100.00,ENE,67,0.0,-999.0,99,-99.99,,,-99.99,9.280000,,2013-01-30 23:00:00,
2013-01-30 18:42:00,28.0,28.0,-100.00,ENE,67,0.0,-999.0,99,-99.99,,,-99.99,9.280000,,2013-01-30 23:42:00,
2013-01-30 18:52:00,28.0,28.0,-100.00,ENE,67,0.0,-999.0,99,-99.99,,,-99.99,9.280000,,2013-01-30 23:52:00,
2013-01-30 19:00:00,27.0,26.0,-100.00,ESE,112,0.0,-999.0,97,-99.99,,,-99.99,0.000000,,2013-01-31 00:00:00,
2013-01-30 19:43:00,27.0,26.0,-100.00,ESE,112,0.0,-999.0,97,-99.99,,,-99.99,0.000000,,2013-01-31 00:43:00,
2013-01-30 19:53:00,27.0,26.0,-100.00,ESE,112,0.0,-999.0,97,-99.99,,,-99.99,0.000000,,2013-01-31 00:53:00,
2013-01-30 21:00:00,24.0,23.0,-100.00,SSE,157,0.0,-999.0,94,-99.99,,,-99.99,0.000000,,2013-01-31 02:00:00,
2013-01-30 22:00:00,23.0,20.0,-100.00,SSE,157,0.0,-999.0,90,-99.99,,,-99.99,0.000000,,2013-01-31 03:00:00,
2013-01-30 22:42:00,23.0,20.0,-100.00,SSE,157,0.0,-999.0,90,-99.99,,,-99.99,0.000000,,2013-01-31 03:42:00,
2013-01-30 22:52:00,23.0,20.0,-100.00,SSE,157,0.0,-999.0,90,-99.99,,,-99.99,0.000000,,2013-01-31 03:52:00,
2013-01-30 23:00:00,21.0,19.0,-100.00,SSW,202,0.0,-999.0,89,-99.99,,,-99.99,0.000000,,2013-01-31 04:00:00,
2013-01-30 23:42:00,21.0,19.0,-100.00,SSW,202,0.0,-999.0,89,-99.99,,,-99.99,0.000000,,2013-01-31 04:42:00,
2013-01-30 23:52:00,21.0,19.0,-100.00,SSW,202,0.0,-999.0,89,-99.99,,,-99.99,0.000000,,2013-01-31 04:52:00,